This is the latest recevied weather packets stored in our database for station/object OH2EGI-2. If no packets are shown the sender has not sent any weather packets the latest 10 day(s).
| Time | Temp. | Humidity | Pressure | Rain* | Wind** | Luminosity | Snow |
|---|---|---|---|---|---|---|---|
| 1778046093 | 13.89° C | 53% | 1003.7 hPa | 0 mm | - | - | - |
| 1778045793 | 13.33° C | 56% | 1003.6 hPa | 0 mm | - | - | - |
| 1778045493 | 11.67° C | 62% | 1003.6 hPa | 0 mm | - | - | - |
| 1778045193 | 10° C | 66% | 1003.5 hPa | 0 mm | - | - | - |
| 1778044893 | 7.22° C | 70% | 1003.5 hPa | 0 mm | - | - | - |
| 1778044593 | 6.11° C | 70% | 1003.5 hPa | 0 mm | - | - | - |
| 1778044293 | 5.56° C | 71% | 1003.3 hPa | 0 mm | - | - | - |
| 1778043993 | 5° C | 72% | 1003.1 hPa | 0 mm | - | - | - |
| 1778043693 | 4.44° C | 72% | 1003.5 hPa | 0 mm | - | - | - |
| 1778043393 | 3.89° C | 73% | 1003.3 hPa | 0 mm | - | - | - |
| 1778043093 | 3.89° C | 73% | 1003.2 hPa | 0 mm | - | - | - |
| 1778042793 | 3.89° C | 74% | 1003.2 hPa | 0 mm | - | - | - |
| 1778042493 | 3.33° C | 74% | 1003.1 hPa | 0 mm | - | - | - |
| 1778042193 | 3.33° C | 75% | 1003.1 hPa | 0 mm | - | - | - |
| 1778041893 | 2.78° C | 75% | 1003.1 hPa | 0 mm | - | - | - |
| 1778041593 | 2.78° C | 75% | 1003 hPa | 0 mm | - | - | - |
| 1778041293 | 2.78° C | 76% | 1003 hPa | 0 mm | - | - | - |
| 1778040993 | 2.22° C | 76% | 1002.8 hPa | 0 mm | - | - | - |
| 1778040693 | 2.22° C | 76% | 1002.8 hPa | 0 mm | - | - | - |
| 1778040398 | 1.67° C | 77% | 1002.9 hPa | 0 mm | - | - | - |
| 1778040093 | 1.67° C | 77% | 1002.8 hPa | 0 mm | - | - | - |
| 1778039793 | 1.11° C | 77% | 1002.7 hPa | 0 mm | - | - | - |
| 1778039493 | 1.11° C | 77% | 1002.7 hPa | 0 mm | - | - | - |
| 1778039193 | 1.11° C | 77% | 1002.7 hPa | 0 mm | - | - | - |
| 1778038893 | 0.56° C | 77% | 1002.7 hPa | 0 mm | - | - | - |
* Rain latest hour (hover to see other rain measurements)
** Current wind speed in m/s (hover to see current wind gust speed)